#timestamp,LO_Frequency,Hit,StdDev 
1633741215.7,286047000.6,N
1633741235.5,286047001.1,N
1633741255.3,286046998.7,N
1633741275.2,286046996.6,N
1633741295.9,286046997.5,N
1633741315.7,286046997.1,N
1633741335.6,286046999.3,N
1633741355.4,286046998.8,N
1633741375.2,286046999.3,N
1633741395.1,286046998.7,N
1633741396.0,286046998.7,N
1633741415.8,286046998.8,N
1633741435.6,286046998.4,N
1633741455.5,286046998.8,N
1633741475.3,286046999.6,N
1633741495.1,286047001.1,N
1633741515.9,286046999.4,N
1633741535.7,286046999.6,N
1633741555.5,286046999.3,N
1633741575.4,286046998.3,N
1633741595.2,286046999.1,N
1633741615.0,286046996.8,N
1633741615.9,286046996.8,N
1633741635.8,286046997.6,N
1633741655.6,286046996.6,N
1633741675.4,286046996.5,N
1633741695.3,286046996.8,N
1633741715.1,286046996.6,N
1633741716.0,286046996.6,N
1633741735.8,286046996.7,N
1633741755.7,286046996.9,N
1633741775.5,286046999.1,N
1633741795.3,286046999.1,N
1633741815.2,286046997.1,N
1633741835.9,286046997.2,N
1633741855.7,286046996.9,N
1633741875.6,286046996.6,N
1633741895.4,286046998.6,N
1633741915.2,286046999.4,N
1633741935.1,286046996.6,N
1633741936.0,286046996.6,N
1633741955.8,286046999.6,N
1633741975.6,286046999.1,N
1633741995.5,286046999.2,N
1633742015.3,286046999.2,N
1633742035.1,286046996.5,N
1633742055.9,286046999.4,N
1633742075.7,286046998.7,N
1633742095.5,286046996.6,N
1633742115.4,286046997.7,N
1633742135.2,286046999.2,N
1633742155.0,286046999.4,N
1633742155.9,286046999.4,N
1633742175.8,286046999.3,N
1633742195.6,286046999.6,N
1633742215.4,286046997.2,N
1633742235.3,286046999.2,N
1633742255.1,286046997.4,N
1633742256.0,286046997.4,N
1633742275.8,286046996.8,N
1633742295.7,286046997.1,N
1633742315.5,286046996.5,Y
1633742335.3,286046999.3,P
1633742355.2,286046999.4,N
1633742375.9,286046998.5,N
1633742395.7,286047000.8,N
1633742415.6,286046998.6,N
1633742435.4,286047001.1,N
1633742455.2,286047000.3,N
1633742475.1,286047000.4,N
1633742476.0,286047000.4,N
1633742495.8,286047001.2,N
1633742515.6,286047000.3,N
1633742535.5,286047000.8,N
1633742555.3,286047000.9,N
1633742575.1,286047000.2,N
1633742595.9,286047001.0,N
1633742615.7,286046998.5,N
1633742635.5,286047001.2,N
1633742655.3,286047001.1,N
1633742675.2,286046998.4,N
1633742695.0,286046999.2,N
1633742695.9,286046999.2,N
1633742715.8,286046996.8,Y
1633742735.6,286046996.9,P
1633742755.4,286046997.1,N
1633742775.2,286046996.9,N
1633742795.1,286046998.0,N
1633742796.0,286046998.0,N
1633742815.8,286046999.6,N
1633742835.7,286046999.0,N
1633742855.5,286046996.6,Y
1633742875.3,286047000.5,P
1633742895.2,286046998.2,N
1633742915.9,286046999.7,N
1633742935.7,286047000.9,N
1633742955.6,286047000.4,N
1633742975.4,286047001.1,N
1633742995.2,286047002.7,N
1633743015.1,286046999.9,N
1633743016.0,286046999.9,N
1633743035.8,286047000.6,N
1633743055.6,286046998.2,N
1633743075.5,286047001.2,N
1633743095.3,286047000.5,N
1633743115.1,286047000.0,N
1633743135.9,286046998.2,N
1633743155.7,286047000.3,N
1633743175.5,286047000.7,N
1633743195.3,286046998.2,N
1633743215.2,286047000.6,N
1633743235.0,286046999.7,N
1633743235.9,286046999.7,N
1633743255.7,286046998.5,N
1633743275.6,286047000.8,N
1633743295.4,286047000.6,N
1633743315.2,286047001.0,N
1633743335.1,286047002.3,N
1633743336.0,286047002.3,N
1633743355.8,286047002.4,N
1633743375.6,286047002.1,N
1633743395.5,286047002.3,N
1633743415.3,286047000.1,N
1633743435.1,286047000.2,N
1633743455.9,286047001.0,N
1633743475.7,286047000.2,N
1633743495.5,286047000.4,N
1633743515.4,286047000.1,N
1633743535.2,286047000.7,N
1633743555.0,286046998.6,N
1633743555.9,286046998.6,N
1633743575.8,286047000.8,N
1633743595.6,286047000.3,N
1633743615.4,286047000.5,N
1633743635.3,286047000.2,N
1633743655.1,286046999.8,N
1633743675.8,286047000.3,N
1633743695.7,286047000.5,N
1633743715.5,286047001.1,N
1633743735.3,286047000.6,N
1633743755.2,286047000.6,N
1633743775.0,286047001.0,N
1633743775.9,286047001.0,N
1633743795.7,286046999.9,N
1633743815.6,286046998.2,N
1633743835.4,286047000.7,N
1633743855.2,286047000.6,N
1633743875.1,286047000.8,N
1633743876.0,286047000.8,N
1633743895.8,286047002.8,Y
1633743915.6,286047002.6,P
1633743935.5,286047002.3,N
1633743955.3,286046999.7,N
1633743975.1,286046999.7,N
1633743995.9,286046999.8,N
1633744015.7,286046999.9,N
1633744035.5,286047002.3,N
1633744055.4,286047002.3,N
1633744075.2,286047002.6,N
1633744095.0,286047000.1,N
1633744095.9,286047000.1,N
1633744115.8,286046999.8,N
1633744135.6,286046998.4,N
1633744155.4,286047001.2,N
1633744175.3,286047001.1,N
1633744195.1,286047000.3,N
1633744215.8,286047000.9,N
1633744235.7,286047000.5,N
1633744255.5,286046998.1,N
1633744275.3,286047000.9,N
1633744295.2,286047000.7,N
1633744315.0,286047001.0,N
1633744315.9,286047001.0,N
1633744335.7,286047001.0,N
1633744355.6,286046999.8,N
1633744375.4,286046999.9,N
1633744395.2,286046999.7,N
1633744415.1,286047000.9,N
1633744416.0,286047000.9,N
1633744435.8,286046998.1,N
1633744455.6,286046998.7,N
1633744475.5,286046998.8,N
1633744495.3,286047001.2,N
1633744515.1,286047000.1,N
1633744535.9,286046998.8,N
1633744555.7,286046998.9,N
1633744575.5,286046997.1,N
1633744595.4,286046996.9,N
1633744615.2,286046999.3,N
1633744635.0,286046998.6,N
1633744635.9,286046998.6,N
1633744655.8,286047001.2,N
1633744675.6,286047000.5,N
1633744695.4,286046998.6,N
1633744715.3,286047000.1,N
1633744735.1,286047000.3,N
1633744755.8,286046998.1,N
1633744775.7,286047000.8,N
1633744795.5,286047002.7,N
